Tracking 29059 objects as of 18-Jun-2024
HD Live streaming from Space Station
objects crossing your sky now

STARLINK-3938

Track STARLINK-3938 now!
10-day predictions
STARLINK-3938 is classified as:


NORAD ID: 52566
Int'l Code: 2022-051AK
Perigee: 546.0 km
Apogee: 547.8 km
Inclination: 53.2 °
Period: 95.4 minutes
Semi major axis: 6917 km
RCS: Unknown
Launch date: May 13, 2022
Source: United States (US)
Launch site: AIR FORCE WESTERN TEST RANGE (AFWTR)
Your satellite tracking list
Your tracking list is empty




NASA's NSSDC Master Catalog

Two Line Element Set (TLE):
1 52566U 22051AK  24169.92662895  .00001231  00000-0  95419-4 0  9992
2 52566  53.2177  81.2401 0001271  91.0688 269.0449 15.08838501116304
Source of the keplerian elements: AFSPC